Location: Akdamlar
(36.8729°N, 30.5187°E)
Time: 15:29:32
(UTC+00:00)

Meteor 1-15 Rocket - Pass Details

Date: 18 September 2020
Orbit: 840 x 906 km, 81.2° (Epoch: 19 October)

Event Time Altitude Azimuth Distance (km) Brightness Sun altitude
Exits shadow 18:08:17 14° 191° (SSW) 2,189 6.2 -25.7°
Maximum altitude 18:13:09 81° 278° (W) 867 4.2 -26.6°
Drops below altitude 10° 18:18:51 10° 7° (N) 2,507 6.8 -27.6°
Sets 18:21:19 0° 8° (N) 3,458 7.6 -28.0°
